Weather Roundup
Issued by NWS Corpus Christi, TX

Home | Current Version | Previous Version | Text Only | Print | Product List | Glossary On
Versions: 1 2 3 4 5 6 7 8 9 10 11 12 13 14 15 16 17 18 19 20 21 22 23 24 25 26 27 28 29 30 31 32 33 34 35 36 37 38 39 40 41 42 43 44 45 46 47 48 49 50
000
ASUS44 KCRP 290610
HRRCRP

SOUTH TEXAS REGIONAL WEATHER ROUNDUP
NATIONAL WEATHER SERVICE CORPUS CHRISTI TX
100 AM CDT SAT AUG 29 2015


TXZ229>244-290700-
...CORPUS CHRISTI AREA OBSERVATIONS...

CITY           SKY/WX    TMP DP  RH WIND       PRES   REMARKS
CORPUS CHRISTI FAIR      75  64  68 SE3       30.00S
NAS CORPUS CHR FAIR      80  66  62 SE13      30.00S
ROCKPORT       FAIR      82  67  60 SE10      29.99F
KINGSVILLE NAS FAIR      72  66  81 E3        30.00S
ALICE          FAIR      68  64  87 CALM      30.00S
FALFURRIAS     FAIR      70  63  78 CALM      30.00S
$$

...VICTORIA AREA OBSERVATIONS...

CITY           SKY/WX    TMP DP  RH WIND       PRES   REMARKS
VICTORIA       FAIR      73  68  84 S3        30.01F
BEEVILLE       FAIR      71  67  89 SE3       30.01S
PLEASANTON     FAIR      75  63  66 SE5       30.02S
SAN ANTONIO    FAIR      78  63  59 S7        30.04R
$$

...LAREDO AREA OBSERVATIONS...

CITY           SKY/WX    TMP DP  RH WIND       PRES   REMARKS
LAREDO         FAIR      79  64  59 SE10      30.02R
COTULLA        FAIR      78  62  57 SE8       30.01R
DEL RIO        FAIR      80  54  40 E9        29.97R
MCALLEN        FAIR      77  67  71 SE6       29.99S
HEBBRONVILLE   NOT AVBL
$$

...OTHER TEXAS OBSERVATIONS...

CITY           SKY/WX    TMP DP  RH WIND       PRES   REMARKS
BROWNSVILLE    FAIR      73  66  78 E5        29.99S
HOUSTON        FAIR      78  68  71 S3        30.02S
COL. STATION   FAIR      76  67  73 S6        30.02R
AUSTIN         FAIR      76  66  71 SW5       30.01R
WACO           FAIR      80  64  58 S10       29.99R
FORT WORTH     MOCLDY    83  62  49 SE10      29.98S
WICHITA FALLS  FAIR      83  62  49 S10       29.96R
LUBBOCK        LGT RAIN  73  65  75 S5        30.09F
EL PASO        MOCLDY    75  61  61 CALM      30.12S
$$

...MARINE OBSERVATIONS...

STATION/POSITION TIME  SKY/WX   TEMP    WIND        PRES    VSBY  WAVE   SWELL
                                AIR SEA DIR/SP/G                  HT/PER HT/PER
                 (UTC)          (F)     (DEG/KT/KT) (MB)    (MI)  (FT/S) (FT/S)
PORT ARANSAS     0600            83 85  100/ 13/ 16 1016.6F
BUOY 90 E PORT A 0550            83 85  130/ 12/ 16 1016.0F         2/ 3
BUOY 45 SE BAFFI 0550            83 84  130/ 12/ 16 1015.1F         2/ 4   2/ 6
BUOY 200 E PT IS 0550            84 86  130/ 10/ 14 1015.5F         2/ 3
BUOY 15 E GALVES 0550            84 86  120/ 12/ 14 1015.6F         1/ 2
$$


USA.gov is the U.S. government's official web portal to all federal, state and local government web resources and services.